User: anonymous   Login
Location: Mentone
(34.5413°N, 85.5351°W)
Time: 19:47:23
(UTC-05:00)
Language:

Uosat F - Orbit

View from above orbital plane
View from above orbital plane
View from above satellite
View from above satellite

Ground track
Ground track

The orbit data is extracted from the following two-line orbital elements,

1 21575U 91050B   15109.47172471  .00000366  00000-0  12929-3 0  9995
2 21575 098.7360 096.3598 0008254 125.2975 026.9307 14.40605471247579
Epoch (UTC): 19 April 2015 11:19:17
Eccentricity: 0.0008254
inclination: 98.7360°
perigee height: 750 km
apogee height: 762 km
right ascension of ascending node: 96.3598°
argument of perigee: 125.2975°
revolutions per day: 14.40605471
mean anomaly at epoch: 26.9307°
orbit number at epoch: 24757

The dashed part of the orbit path shows where the satellite is in the earth's shadow,  

DLR